User: anonymous   Login
Location: Kitchener
(43.4500°N, 80.5000°W)
Time: 15:46:17
(UTC-04:00)
Language:

Cosmos 1939 Rocket - Orbit

View from above orbital plane
View from above orbital plane
View from above satellite
View from above satellite

Ground track
Ground track

The orbit data is extracted from the following two-line orbital elements,

1 19046U 88032B   15187.76928620  .00001828  00000-0  14489-3 0  9991
2 19046 097.6197 239.9530 0039780 233.8353 125.9189 15.01213187465869
Epoch (UTC): 06 July 2015 18:27:46
Eccentricity: 0.0039780
inclination: 97.6197°
perigee height: 535 km
apogee height: 591 km
right ascension of ascending node: 239.9530°
argument of perigee: 233.8353°
revolutions per day: 15.01213187
mean anomaly at epoch: 125.9189°
orbit number at epoch: 46586

The dashed part of the orbit path shows where the satellite is in the earth's shadow,  

DLR